Starlink 31404

operational
NORAD ID: 59521 Int'l Des: 2024-073 Owner: SPXS Country: US Constellation: starlink
LEOCIRCULAR

About Starlink 31404

Description loading...

Live Position

Loading 3D Globe...

Upcoming Passes

Altitude History

Altitude vs Time

uPlot chart will show altitude changes over time

Two-Line Element Set

1 59521U 24073L 26048.10534772 -.00000907 00000-0 -23437-4 0 9998
2 59521 43.0039 74.6007 0001404 258.8443 101.2251 15.27570206103023
Epoch: Feb 17, 2026 • Age: 27 hours

Current Status

Altitude 482.8 km
Velocity 7.63 km/s
Sub-Earth Point 0.39°N, 9.69°E
Launch Date Apr 17, 2024
Age 1.8 years
Type internet

Technical Details

Classification Payload
Mass 730.00 kg
Dry Mass 700.00 kg
Total Mass 730.00 kg
Length 0.30 m
Diameter 4.10 m
Span 29.00 m
Shape Box + pan
Manufacturer SPXS
Bus Type Starlink V2M
Phase Status In Orbit
Owner/State SPXS/US

Large Constellations

Loading constellations...